FW1436 Weather Reports


time (UTC)temp
C
wind
direction
speed
KPH
gust
KPH
rain 1hr
cm
rain 24hr
cm
rain mn
cm
humidity
%
barometer
mb
20260502190056 15 274 0.0 11.3 0.00 0.00 0.00 88 1011.0
20260502184555 15 233 0.0 9.7 0.00 0.00 0.00 88 1010.8
20260502183059 15 249 3.2 11.3 0.00 0.00 0.00 88 1010.8
20260502181556 15 257 0.0 4.8 0.00 0.00 0.00 89 1010.9
20260502163048 13 266 1.6 8.0 0.00 0.00 0.00 95 1011.3
20260502161552 12 280 3.2 9.7 0.00 0.00 0.00 95 1011.5
20260502160147 12 310 1.6 8.0 0.00 0.00 0.00 94 1011.5
20260502151545 17 306 1.6 6.4 0.00 0.00 0.00 84 1011.2
20260502123029 13 262 0.0 8.0 0.00 0.00 0.00 95 1013.4
20260502121528 14 283 1.6 11.3 0.00 0.00 0.00 95 1013.2
20260502114530 15 101 1.6 8.0 0.00 0.00 0.00 95 1013.4
20260502113025 15 127 1.6 9.7 0.00 0.00 0.00 95 1013.6
20260502111517 15 107 1.6 8.0 0.00 0.00 0.00 96 1014.0
20260502110018 14 79 1.6 8.0 0.00 0.00 0.00 96 1014.3
20260502104519 13 141 0.0 6.4 0.00 0.00 0.00 96 1014.6
20260502103011 -17 0.0 0.0 0.00 0.00 0.00 1014.6
20260502101506 -17 0.0 0.0 0.00 0.00 0.00 1014.8
20260502071514 -17 0.0 0.0 0.00 0.00 0.00 1015.1
20260502070010 -17 0.0 0.0 0.00 0.00 0.00 1015.0
20260502064505 -17 0.0 0.0 0.00 0.00 0.00 1015.3
20260502063005 -17 0.0 0.0 0.00 0.00 0.00 1015.3
20260502061505 -17 0.0 0.0 0.00 0.00 0.00 1015.8
20260502054556 -17 0.0 0.0 0.00 0.00 0.00 1014.8
20260502053057 -17 98 4.8 9.7 0.00 0.00 0.00 1014.7
20260502051551 14 114 3.2 8.0 0.00 0.00 0.00 84 1014.8
20260502050050 14 124 0.0 4.8 0.00 0.00 0.00 82 1015.4
20260502044547 14 172 1.6 4.8 0.00 0.00 0.00 82 1015.2
20260502043117 14 113 1.6 6.4 0.00 0.00 0.00 82 1015.0
20260502041558 14 108 0.0 9.7 0.00 0.00 0.00 82 1014.9
20260502040044 15 108 0.0 3.2 0.00 0.00 0.00 82 1015.5
20260502034542 15 138 0.0 3.2 0.00 0.00 0.00 81 1015.6
20260502033042 15 124 0.0 4.8 0.00 0.00 0.00 81 1015.4
20260502031540 15 120 0.0 6.4 0.00 0.00 0.00 81 1015.3
20260502030046 15 158 0.0 6.4 0.00 0.00 0.00 81 1015.5
20260502024538 15 162 0.0 6.4 0.00 0.00 0.00 81 1015.6
20260502023036 15 153 1.6 8.0 0.00 0.00 0.00 80 1015.7
20260502021534 15 116 1.6 6.4 0.00 0.00 0.00 80 1015.7
20260502020035 15 139 0.0 8.0 0.00 0.00 0.00 80 1015.7
20260502014530 15 102 1.6 8.0 0.00 0.00 0.00 79 1016.0
20260502013030 15 106 1.6 6.4 0.00 0.00 0.00 79 1016.0
20260502011529 15 150 1.6 11.3 0.00 0.00 0.00 79 1016.0
20260502010030 15 157 3.2 11.3 0.00 0.00 0.00 79 1016.2
20260502004530 15 136 0.0 3.2 0.00 0.00 0.00 79 1016.3
20260502003025 16 64 1.6 4.8 0.00 0.00 0.00 78 1016.1
20260502001523 16 227 0.0 14.5 0.00 0.00 0.00 77 1016.1
20260502000023 16 150 4.8 16.1 0.00 0.00 0.00 76 1016.1
20260501234518 16 152 6.4 17.7 0.00 0.00 0.00 76 1016.2
20260501233018 16 123 0.0 12.9 0.00 0.00 0.00 76 1016.4
20260501231518 16 165 3.2 14.5 0.00 0.00 0.00 75 1016.4
20260501230022 17 145 3.2 11.3 0.00 0.00 0.00 74 1016.3
20260501224511 17 160 1.6 14.5 0.00 0.00 0.00 73 1016.3
20260501223008 17 238 1.6 12.9 0.00 0.00 0.00 71 1016.2
20260501221506 18 188 1.6 16.1 0.00 0.00 0.00 70 1016.1
20260501220003 18 236 6.4 14.5 0.00 0.00 0.00 69 1016.0
20260501214502 18 151 4.8 19.3 0.00 0.00 0.00 68 1016.0
20260501213001 18 98 9.7 22.5 0.00 0.00 0.00 66 1016.0
20260501211603 19 142 3.2 17.7 0.00 0.00 0.00 63 1015.8
20260501211501 19 137 4.8 17.7 0.00 0.00 0.00 63 1015.8
20260501210100 18 189 0.0 9.7 0.00 0.00 0.00 61 1015.7
20260501204608 18 141 1.6 16.1 0.00 0.00 0.00 58 1015.6
20260501203058 18 243 0.0 0.0 0.00 0.00 0.00 53 1015.2
20260501201557 18 243 0.0 0.0 0.00 0.00 0.00 54 1014.9
20260501200057 19 243 0.0 0.0 0.00 0.00 0.00 53 1014.9
20260501194556 20 243 0.0 0.0 0.00 0.00 0.00 46 1014.6
20260501193056 20 202 0.0 0.0 0.00 0.00 0.00 46 1014.5
20260501191554 21 202 0.0 1.6 0.00 0.00 0.00 44 1014.4